,,Stat5,,Stat1,,Stat2,,Stat3,,Stat4,,Wind1,,Wind1,
time,status,PA1M_AVG,status,PR1M_SUM,status,RH1M_AVG,status,SR1M_AVG,status,TA1M_AVG,status,W1dAve1m,status,W1sAve1m,
2000-09-11, 00:00:01,VALID,918.872,VALID,0,VALID,97.4367,VALID,0,VALID,18.6581,VALID,163,VALID,0,
2000-09-11, 00:01:00,VALID,918.868,VALID,0,VALID,97.4049,VALID,0.0509425,VALID,18.6748,VALID,161,VALID,0,
2000-09-11, 00:02:00,VALID,918.854,VALID,0,VALID,97.3604,VALID,0.0509425,VALID,18.6648,VALID,168,VALID,0.131611,
2000-09-11, 00:03:00,VALID,918.865,VALID,0,VALID,97.218,VALID,0.0339617,VALID,18.6521,VALID,180,VALID,0.333826,
2000-09-11, 00:04:00,VALID,918.861,VALID,0,VALID,97.2956,VALID,0.0169808,VALID,18.6561,VALID,200,VALID,0.00863487,
2000-09-11, 00:05:00,VALID,918.867,VALID,0,VALID,97.3935,VALID,0.0509425,VALID,18.6425,VALID,302,VALID,0.314406,
2000-09-11, 00:06:00,VALID,918.866,VALID,0,VALID,97.5194,VALID,0,VALID,18.6457,VALID,299,VALID,0.536914,
2000-09-11, 00:07:00,VALID,918.876,VALID,0,VALID,97.644,VALID,0.0169808,VALID,18.6785,VALID,281,VALID,0.553686,
2000-09-11, 00:08:00,VALID,918.872,VALID,0,VALID,97.7521,VALID,0,VALID,18.6817,VALID,271,VALID,0.434416,
2000-09-11, 00:09:00,VALID,918.874,VALID,0,VALID,97.7686,VALID,0,VALID,18.6715,VALID,263,VALID,0.391197,
2000-09-11, 00:10:00,VALID,918.867,VALID,0,VALID,97.7788,VALID,0,VALID,18.6752,VALID,265,VALID,0.359375,
2000-09-11, 00:11:00,VALID,918.844,VALID,0,VALID,97.7622,VALID,0,VALID,18.6789,VALID,255,VALID,0.546875,
2000-09-11, 00:12:00,VALID,918.828,VALID,0,VALID,97.8118,VALID,0,VALID,18.6646,VALID,239,VALID,0.378255,
2000-09-11, 00:13:00,VALID,918.82,VALID,0,VALID,97.8792,VALID,0,VALID,18.6852,VALID,231,VALID,0.326647,
2000-09-11, 00:14:00,VALID,918.803,VALID,0,VALID,97.9695,VALID,-0.0169808,VALID,18.6916,VALID,221,VALID,0.924554,
2000-09-11, 00:15:01,VALID,918.801,VALID,0,VALID,98.0928,VALID,0.0169808,VALID,18.6847,VALID,213,VALID,1.09766,
2000-09-11, 00:16:00,VALID,918.798,VALID,0,VALID,98.2251,VALID,0.0169808,VALID,18.6976,VALID,209,VALID,1.19215,
2000-09-11, 00:17:00,VALID,918.8,VALID,0,VALID,98.3637,VALID,0.0169808,VALID,18.6941,VALID,210,VALID,1.11369,
2000-09-11, 00:18:00,VALID,918.799,VALID,0,VALID,98.4654,VALID,0,VALID,18.6874,VALID,211,VALID,1.01858,
2000-09-11, 00:19:00,VALID,918.779,VALID,0,VALID,98.5595,VALID,0.0169808,VALID,18.6944,VALID,212,VALID,1.11836,
2000-09-11, 00:20:00,VALID,918.768,VALID,0,VALID,98.6498,VALID,0.0339617,VALID,18.6941,VALID,219,VALID,0.81065,
2000-09-11, 00:21:00,VALID,918.737,VALID,0,VALID,98.7083,VALID,0.0339617,VALID,18.7071,VALID,208,VALID,0.60829,
2000-09-11, 00:22:01,VALID,918.731,VALID,0,VALID,98.7579,VALID,0.0509425,VALID,18.6946,VALID,189,VALID,0.513889,
2000-09-11, 00:23:00,VALID,918.699,VALID,0,VALID,98.8088,VALID,0.0509425,VALID,18.6941,VALID,177,VALID,0.614104,
2000-09-11, 00:24:00,VALID,918.693,VALID,0,VALID,98.8673,VALID,0.0339617,VALID,18.7008,VALID,191,VALID,0.592857,
2000-09-11, 00:25:00,VALID,918.656,VALID,0,VALID,98.9003,VALID,0.0169808,VALID,18.6907,VALID,193,VALID,0.478906,
2000-09-11, 00:26:00,VALID,918.642,VALID,0,VALID,98.9499,VALID,0.0169808,VALID,18.6944,VALID,210,VALID,0.450721,
2000-09-11, 00:27:00,VALID,918.623,VALID,0,VALID,98.9931,VALID,0.0339617,VALID,18.6976,VALID,204,VALID,0.418791,
2000-09-11, 00:28:00,VALID,918.596,VALID,0,VALID,99.016,VALID,0,VALID,18.7075,VALID,207,VALID,0.401521,
2000-09-11, 00:29:00,VALID,918.579,VALID,0,VALID,99.0326,VALID,0,VALID,18.6914,VALID,212,VALID,0.589063,
2000-09-11, 00:30:00,VALID,918.561,VALID,0,VALID,99.0249,VALID,-0.0679233,VALID,18.6921,VALID,199,VALID,0.619449,
2000-09-11, 00:31:01,VALID,918.542,VALID,0,VALID,99.0351,VALID,-0.0679233,VALID,18.6757,VALID,196,VALID,0.832648,
2000-09-11, 00:32:01,VALID,918.521,VALID,0,VALID,99.0389,VALID,-0.0169808,VALID,18.6695,VALID,178,VALID,0.704181,
2000-09-11, 00:33:00,VALID,918.493,VALID,0,VALID,99.0338,VALID,-0.0849042,VALID,18.6466,VALID,181,VALID,0.419271,
2000-09-11, 00:34:01,VALID,918.457,VALID,0,VALID,99.0287,VALID,-0.0679233,VALID,18.6436,VALID,174,VALID,0.841295,
2000-09-11, 00:35:01,VALID,918.437,VALID,0,VALID,99.0224,VALID,-0.0509425,VALID,18.6243,VALID,180,VALID,0.574405,
2000-09-11, 00:36:00,VALID,918.405,VALID,0,VALID,99.0313,VALID,-0.0849042,VALID,18.6243,VALID,177,VALID,0.399704,
2000-09-11, 00:37:00,VALID,918.392,VALID,0,VALID,99.0351,VALID,-0.0679233,VALID,18.6275,VALID,165,VALID,0.120777,
2000-09-11, 00:38:00,VALID,918.382,VALID,0,VALID,99.0224,VALID,-0.0169808,VALID,18.6344,VALID,200,VALID,0.44449,
2000-09-11, 00:39:00,VALID,918.363,VALID,0,VALID,99.0046,VALID,-0.0169808,VALID,18.6302,VALID,210,VALID,0.0739329,
2000-09-11, 00:40:00,VALID,918.342,VALID,0,VALID,98.9893,VALID,-0.0509425,VALID,18.6436,VALID,196,VALID,0.251234,
2000-09-11, 00:41:00,VALID,918.333,VALID,0,VALID,98.9461,VALID,-0.0339617,VALID,18.6429,VALID,221,VALID,0.788035,
2000-09-11, 00:42:00,VALID,918.308,VALID,0,VALID,98.8876,VALID,-0.0339617,VALID,18.6436,VALID,209,VALID,0.596571,
2000-09-11, 00:43:00,VALID,918.309,VALID,0,VALID,98.8088,VALID,-0.0169808,VALID,18.6533,VALID,208,VALID,0.88239,
2000-09-11, 00:44:00,VALID,918.3,VALID,0,VALID,98.7363,VALID,-0.0169808,VALID,18.6623,VALID,209,VALID,0.441295,
2000-09-11, 00:45:01,VALID,918.287,VALID,0,VALID,98.6282,VALID,0.0679233,VALID,18.6676,VALID,188,VALID,0.610403,
2000-09-11, 00:46:00,VALID,918.276,VALID,0,VALID,98.5125,VALID,0.0509425,VALID,18.681,VALID,180,VALID,0.602618,
2000-09-11, 00:47:01,VALID,918.262,VALID,0,VALID,98.4031,VALID,0.0849042,VALID,18.6844,VALID,194,VALID,0.585526,
2000-09-11, 00:48:00,VALID,918.251,VALID,0,VALID,98.2874,VALID,0.0339617,VALID,18.6911,VALID,217,VALID,0.650971,
2000-09-11, 00:49:00,VALID,918.227,VALID,0,VALID,98.1259,VALID,0.0679233,VALID,18.6978,VALID,209,VALID,0.836914,
2000-09-11, 00:50:00,VALID,918.196,VALID,0,VALID,97.8334,VALID,0.0509425,VALID,18.6907,VALID,193,VALID,0.944285,
2000-09-11, 00:51:00,VALID,918.172,VALID,0,VALID,97.5219,VALID,0.0679233,VALID,18.71,VALID,201,VALID,0.8648,
2000-09-11, 00:52:01,VALID,918.148,VALID,0,VALID,97.3846,VALID,0.0849042,VALID,18.7421,VALID,215,VALID,0.636936,
2000-09-11, 00:53:00,VALID,918.123,VALID,0,VALID,97.2981,VALID,0.0849042,VALID,18.7615,VALID,222,VALID,0.796053,
2000-09-11, 00:54:00,VALID,918.108,VALID,0,VALID,97.2917,VALID,0.0849042,VALID,18.7652,VALID,231,VALID,0.629464,
2000-09-11, 00:55:00,VALID,918.108,VALID,0,VALID,97.307,VALID,0.0509425,VALID,18.7617,VALID,212,VALID,0.426562,
2000-09-11, 00:56:00,VALID,918.106,VALID,0,VALID,97.3528,VALID,0.0679233,VALID,18.7488,VALID,205,VALID,0.477764,
2000-09-11, 00:57:00,VALID,918.113,VALID,0,VALID,97.3744,VALID,0.0849042,VALID,18.7488,VALID,192,VALID,0.791118,
2000-09-11, 00:58:00,VALID,918.106,VALID,0,VALID,97.4214,VALID,0.0849042,VALID,18.7262,VALID,187,VALID,0.545847,
2000-09-11, 00:59:00,VALID,918.098,VALID,0,VALID,97.5117,VALID,0.101885,VALID,18.7126,VALID,184,VALID,0.685742,
2000-09-11, 01:00:01,VALID,918.103,VALID,0,VALID,97.5728,VALID,0.0849042,VALID,18.7031,VALID,181,VALID,0.533306,
2000-09-11, 01:01:01,VALID,918.101,VALID,0,VALID,97.6134,VALID,0.0849042,VALID,18.6971,VALID,172,VALID,0.44634,
2000-09-11, 01:02:00,VALID,918.103,VALID,0,VALID,97.6847,VALID,0.0679233,VALID,18.7103,VALID,181,VALID,0.642314,
2000-09-11, 01:03:00,VALID,918.105,VALID,0,VALID,97.6529,VALID,0.0849042,VALID,18.71,VALID,183,VALID,0.837891,
2000-09-11, 01:04:01,VALID,918.097,VALID,0,VALID,97.63,VALID,0.0509425,VALID,18.7001,VALID,172,VALID,0.620313,
2000-09-11, 01:05:01,VALID,918.098,VALID,0,VALID,97.5626,VALID,0.0509425,VALID,18.713,VALID,184,VALID,0.545387,
2000-09-11, 01:06:01,VALID,918.095,VALID,0,VALID,97.4354,VALID,0.0339617,VALID,18.7133,VALID,192,VALID,0.299198,
2000-09-11, 01:07:01,VALID,918.086,VALID,0,VALID,97.4062,VALID,0.0679233,VALID,18.723,VALID,198,VALID,0.0722128,
2000-09-11, 01:08:00,VALID,918.075,VALID,0,VALID,97.4291,VALID,0.0169808,VALID,18.7456,VALID,196,VALID,0,
2000-09-11, 01:09:00,VALID,918.055,VALID,0,VALID,97.452,VALID,0.0679233,VALID,18.7458,VALID,196,VALID,0,
2000-09-11, 01:10:00,VALID,918.047,VALID,0,VALID,97.466,VALID,0.0339617,VALID,18.759,VALID,196,VALID,0,
2000-09-11, 01:11:00,VALID,918.037,VALID,0,VALID,97.4888,VALID,0.0509425,VALID,18.7423,VALID,196,VALID,0,
2000-09-11, 01:12:00,VALID,918.021,VALID,0,VALID,97.5524,VALID,0.0339617,VALID,18.752,VALID,196,VALID,0,
2000-09-11, 01:13:00,VALID,918.003,VALID,0,VALID,97.6592,VALID,0.0339617,VALID,18.762,VALID,196,VALID,0,
2000-09-11, 01:14:00,VALID,917.981,VALID,0,VALID,97.6936,VALID,0.0169808,VALID,18.7791,VALID,196,VALID,0,
2000-09-11, 01:15:01,VALID,917.967,VALID,0,VALID,97.6656,VALID,-0.0509425,VALID,18.7502,VALID,196,VALID,0,
2000-09-11, 01:16:00,VALID,917.937,VALID,0,VALID,97.6847,VALID,-0.0509425,VALID,18.7505,VALID,196,VALID,0,
2000-09-11, 01:17:01,VALID,917.928,VALID,0,VALID,97.6948,VALID,-0.0169808,VALID,18.7438,VALID,196,VALID,0,
2000-09-11, 01:18:00,VALID,917.891,VALID,0,VALID,97.6745,VALID,-0.0339617,VALID,18.7371,VALID,225,VALID,0.240921,
2000-09-11, 01:19:00,VALID,917.865,VALID,0,VALID,97.6986,VALID,-0.0339617,VALID,18.7341,VALID,235,VALID,0,
2000-09-11, 01:20:00,VALID,917.846,VALID,0,VALID,97.7444,VALID,-0.0509425,VALID,18.7308,VALID,236,VALID,0,
2000-09-11, 01:21:00,VALID,917.823,VALID,0,VALID,97.7889,VALID,-0.0339617,VALID,18.7211,VALID,236,VALID,0,
2000-09-11, 01:22:01,VALID,917.82,VALID,0,VALID,97.8601,VALID,-0.0169808,VALID,18.7306,VALID,235,VALID,0,
2000-09-11, 01:23:01,VALID,917.806,VALID,0,VALID,97.9046,VALID,-0.0169808,VALID,18.7373,VALID,161,VALID,0,
2000-09-11, 01:24:00,VALID,917.809,VALID,0,VALID,97.9123,VALID,-0.0679233,VALID,18.738,VALID,149,VALID,0,
2000-09-11, 01:25:00,VALID,917.817,VALID,0,VALID,97.9428,VALID,0,VALID,18.7278,VALID,149,VALID,0,
2000-09-11, 01:26:01,VALID,917.818,VALID,0,VALID,97.9517,VALID,-0.0339617,VALID,18.7075,VALID,145,VALID,0,
2000-09-11, 01:27:00,VALID,917.812,VALID,0,VALID,97.8462,VALID,-0.0169808,VALID,18.6852,VALID,144,VALID,0,
2000-09-11, 01:28:00,VALID,917.801,VALID,0,VALID,97.8017,VALID,-0.0679233,VALID,18.6595,VALID,144,VALID,0,
2000-09-11, 01:29:00,VALID,917.794,VALID,0,VALID,97.7457,VALID,-0.0509425,VALID,18.6402,VALID,140,VALID,0,
2000-09-11, 01:30:00,VALID,917.777,VALID,0,VALID,97.6923,VALID,0,VALID,18.633,VALID,134,VALID,0.26028,
2000-09-11, 01:31:01,VALID,917.765,VALID,0,VALID,97.6516,VALID,0.0339617,VALID,18.6134,VALID,128,VALID,1.06291,
2000-09-11, 01:32:01,VALID,917.729,VALID,0,VALID,97.6643,VALID,0.0339617,VALID,18.6037,VALID,124,VALID,0.918708,
2000-09-11, 01:33:00,VALID,917.724,VALID,0,VALID,97.7088,VALID,0.0509425,VALID,18.5709,VALID,143,VALID,0.8375,
2000-09-11, 01:34:01,VALID,917.711,VALID,0,VALID,97.6974,VALID,0,VALID,18.5548,VALID,146,VALID,0.746652,
2000-09-11, 01:35:01,VALID,917.689,VALID,0,VALID,97.6872,VALID,0.0169808,VALID,18.5389,VALID,142,VALID,0.788876,
2000-09-11, 01:36:00,VALID,917.682,VALID,0,VALID,97.7521,VALID,0.0339617,VALID,18.5096,VALID,136,VALID,0.698691,
2000-09-11, 01:37:00,VALID,917.674,VALID,0,VALID,97.8245,VALID,0.0339617,VALID,18.5098,VALID,139,VALID,0.556588,
2000-09-11, 01:38:00,VALID,917.659,VALID,0,VALID,97.8576,VALID,0.0339617,VALID,18.4934,VALID,145,VALID,0.517064,
2000-09-11, 01:39:00,VALID,917.638,VALID,0,VALID,97.9085,VALID,0.0339617,VALID,18.4937,VALID,146,VALID,0.457698,
2000-09-11, 01:40:01,VALID,917.608,VALID,0,VALID,97.925,VALID,0.0339617,VALID,18.4741,VALID,145,VALID,0.599301,
2000-09-11, 01:41:00,VALID,917.586,VALID,0,VALID,97.9606,VALID,0.0339617,VALID,18.4812,VALID,145,VALID,0.625822,
2000-09-11, 01:42:00,VALID,917.563,VALID,0,VALID,98.0013,VALID,0.0509425,VALID,18.4778,VALID,140,VALID,0.835503,
2000-09-11, 01:43:00,VALID,917.543,VALID,0,VALID,98.0445,VALID,0.0339617,VALID,18.4646,VALID,141,VALID,0.86402,
2000-09-11, 01:44:01,VALID,917.526,VALID,0,VALID,98.0967,VALID,0.0169808,VALID,18.4651,VALID,147,VALID,0.918973,
2000-09-11, 01:45:01,VALID,917.516,VALID,0,VALID,98.131,VALID,-0.0509425,VALID,18.4498,VALID,154,VALID,0.979646,
2000-09-11, 01:46:00,VALID,917.495,VALID,0,VALID,98.234,VALID,-0.0679233,VALID,18.4568,VALID,161,VALID,0.978463,
2000-09-11, 01:47:01,VALID,917.477,VALID,0,VALID,98.3408,VALID,-0.0509425,VALID,18.4466,VALID,176,VALID,0.912829,
2000-09-11, 01:48:01,VALID,917.457,VALID,0,VALID,98.365,VALID,-0.0849042,VALID,18.4369,VALID,205,VALID,0.798564,
2000-09-11, 01:49:00,VALID,917.439,VALID,0,VALID,98.4769,VALID,-0.0509425,VALID,18.4503,VALID,191,VALID,1.06895,
2000-09-11, 01:50:01,VALID,917.432,VALID,0,VALID,98.5303,VALID,-0.101885,VALID,18.457,VALID,198,VALID,0.531867,
2000-09-11, 01:51:01,VALID,917.42,VALID,0,VALID,98.5926,VALID,-0.0849042,VALID,18.4538,VALID,184,VALID,0.836372,
2000-09-11, 01:52:01,VALID,917.412,VALID,0,VALID,98.6498,VALID,-0.0679233,VALID,18.4637,VALID,180,VALID,0.693793,
2000-09-11, 01:53:00,VALID,917.392,VALID,0,VALID,98.6943,VALID,-0.0679233,VALID,18.4501,VALID,148,VALID,0.434416,
2000-09-11, 01:54:01,VALID,917.379,VALID,0,VALID,98.7108,VALID,-0.0679233,VALID,18.4565,VALID,161,VALID,0.470313,
2000-09-11, 01:55:00,VALID,917.378,VALID,0,VALID,98.7401,VALID,-0.0849042,VALID,18.4501,VALID,162,VALID,0.625586,
2000-09-11, 01:56:00,VALID,917.351,VALID,0,VALID,98.7732,VALID,-0.0679233,VALID,18.457,VALID,155,VALID,0.78726,
2000-09-11, 01:57:01,VALID,917.336,VALID,0,VALID,98.8075,VALID,-0.0849042,VALID,18.4473,VALID,161,VALID,0.577303,
2000-09-11, 01:58:01,VALID,917.346,VALID,0,VALID,98.8316,VALID,-0.0849042,VALID,18.4312,VALID,169,VALID,0.569285,
2000-09-11, 01:59:01,VALID,917.338,VALID,0,VALID,98.8494,VALID,-0.0679233,VALID,18.421,VALID,173,VALID,0.281445,
2000-09-11, 02:00:01,VALID,917.329,VALID,0,VALID,98.8711,VALID,-0.0509425,VALID,18.4046,VALID,169,VALID,0.38014,
2000-09-11, 02:01:01,VALID,917.332,VALID,0,VALID,98.9041,VALID,-0.0849042,VALID,18.4056,VALID,166,VALID,0.383635,
2000-09-11, 02:02:01,VALID,917.316,VALID,0,VALID,98.9397,VALID,-0.0849042,VALID,18.3989,VALID,172,VALID,0.463471,
2000-09-11, 02:03:01,VALID,917.309,VALID,0,VALID,99.0237,VALID,-0.0509425,VALID,18.3855,VALID,176,VALID,0.524089,
2000-09-11, 02:04:01,VALID,917.299,VALID,0,VALID,99.1038,VALID,-0.0679233,VALID,18.4272,VALID,192,VALID,0.718973,
2000-09-11, 02:05:01,VALID,917.291,VALID,0,VALID,99.1381,VALID,-0.0849042,VALID,18.4339,VALID,201,VALID,0.579799,
2000-09-11, 02:06:01,VALID,917.279,VALID,0,VALID,99.1546,VALID,-0.101885,VALID,18.4432,VALID,215,VALID,0.576014,
2000-09-11, 02:07:01,VALID,917.271,VALID,0,VALID,99.1546,VALID,-0.0849042,VALID,18.4531,VALID,225,VALID,0.935389,
2000-09-11, 02:08:01,VALID,917.266,VALID,0,VALID,99.1826,VALID,-0.0679233,VALID,18.4727,VALID,222,VALID,1.04359,
2000-09-11, 02:09:01,VALID,917.254,VALID,0,VALID,99.1852,VALID,-0.0509425,VALID,18.4692,VALID,215,VALID,0.804878,
2000-09-11, 02:10:01,VALID,917.236,VALID,0,VALID,99.1902,VALID,-0.0339617,VALID,18.4662,VALID,190,VALID,0.576069,
2000-09-11, 02:11:01,VALID,917.232,VALID,0,VALID,99.1915,VALID,-0.0679233,VALID,18.4628,VALID,183,VALID,0.647821,
2000-09-11, 02:12:01,VALID,917.21,VALID,0,VALID,99.2017,VALID,-0.0339617,VALID,18.4662,VALID,184,VALID,0.789497,
2000-09-11, 02:13:01,VALID,917.205,VALID,0,VALID,99.208,VALID,-0.101885,VALID,18.4761,VALID,191,VALID,0.878801,
2000-09-11, 02:14:01,VALID,917.187,VALID,0,VALID,99.203,VALID,-0.0169808,VALID,18.4722,VALID,210,VALID,1.08214,
2000-09-11, 02:15:01,VALID,917.182,VALID,0,VALID,99.2284,VALID,0.0509425,VALID,18.484,VALID,209,VALID,0.873355,
2000-09-11, 02:16:01,VALID,917.156,VALID,0,VALID,99.2258,VALID,0.101885,VALID,18.4902,VALID,226,VALID,0.350084,
2000-09-11, 02:17:01,VALID,917.144,VALID,0,VALID,99.2169,VALID,0.0339617,VALID,18.5004,VALID,213,VALID,0.462993,
2000-09-11, 02:18:01,VALID,917.122,VALID,0,VALID,99.2297,VALID,0.0509425,VALID,18.5004,VALID,222,VALID,0.549831,
2000-09-11, 02:19:01,VALID,917.092,VALID,0,VALID,99.2131,VALID,0.0509425,VALID,18.5073,VALID,228,VALID,0.440234,
2000-09-11, 02:20:00,VALID,917.065,VALID,0,VALID,99.2144,VALID,0.0339617,VALID,18.5036,VALID,223,VALID,0.376645,
2000-09-11, 02:21:00,VALID,917.049,VALID,0,VALID,99.2195,VALID,0.0509425,VALID,18.4969,VALID,214,VALID,0.555122,
2000-09-11, 02:22:00,VALID,917.047,VALID,0,VALID,99.2106,VALID,0.0509425,VALID,18.5068,VALID,207,VALID,0,
2000-09-11, 02:23:00,VALID,917.016,VALID,0,VALID,99.2258,VALID,0.0509425,VALID,18.4937,VALID,136,VALID,0,
2000-09-11, 02:24:00,VALID,917.011,VALID,0,VALID,99.2208,VALID,0.0509425,VALID,18.4971,VALID,122,VALID,0,
2000-09-11, 02:25:00,VALID,917.014,VALID,0,VALID,99.2386,VALID,0.0169808,VALID,18.5073,VALID,112,VALID,0,
2000-09-11, 02:26:00,VALID,916.993,VALID,0,VALID,99.2309,VALID,0.0169808,VALID,18.5172,VALID,113,VALID,0,
2000-09-11, 02:27:00,VALID,916.983,VALID,0,VALID,99.2271,VALID,0.0169808,VALID,18.5001,VALID,112,VALID,0,
2000-09-11, 02:28:00,VALID,916.983,VALID,0,VALID,99.2335,VALID,0.0509425,VALID,18.5167,VALID,112,VALID,0,
2000-09-11, 02:29:00,VALID,916.963,VALID,0,VALID,99.2284,VALID,0,VALID,18.5137,VALID,112,VALID,0,
2000-09-11, 02:30:00,VALID,916.955,VALID,0,VALID,99.2093,VALID,0,VALID,18.5015,VALID,112,VALID,0,
2000-09-11, 02:31:00,VALID,916.935,VALID,0,VALID,99.1852,VALID,-0.0169808,VALID,18.4921,VALID,111,VALID,0,
2000-09-11, 02:32:00,VALID,916.935,VALID,0,VALID,99.1902,VALID,-0.0509425,VALID,18.4921,VALID,94,VALID,0,
2000-09-11, 02:33:00,VALID,916.914,VALID,0,VALID,99.1928,VALID,0,VALID,18.4981,VALID,85,VALID,0,
2000-09-11, 02:34:00,VALID,916.914,VALID,0,VALID,99.161,VALID,-0.0509425,VALID,18.4787,VALID,84,VALID,0,
2000-09-11, 02:35:00,VALID,916.909,VALID,0,VALID,99.1508,VALID,-0.0509425,VALID,18.4918,VALID,84,VALID,0,
2000-09-11, 02:36:00,VALID,916.903,VALID,0,VALID,99.1292,VALID,-0.0509425,VALID,18.4819,VALID,84,VALID,0,
2000-09-11, 02:37:00,VALID,916.894,VALID,0,VALID,99.1445,VALID,-0.0509425,VALID,18.4854,VALID,84,VALID,0,
2000-09-11, 02:38:00,VALID,916.889,VALID,0,VALID,99.1305,VALID,-0.0169808,VALID,18.4787,VALID,84,VALID,0,
2000-09-11, 02:39:00,VALID,916.88,VALID,0,VALID,99.1101,VALID,-0.0339617,VALID,18.4595,VALID,79,VALID,0,
2000-09-11, 02:40:00,VALID,916.872,VALID,0,VALID,99.1114,VALID,-0.0339617,VALID,18.4464,VALID,98,VALID,0,
2000-09-11, 02:41:00,VALID,916.846,VALID,0,VALID,99.0809,VALID,-0.0169808,VALID,18.4143,VALID,101,VALID,0,
2000-09-11, 02:42:00,VALID,916.828,VALID,0,VALID,99.0427,VALID,0,VALID,18.3719,VALID,101,VALID,0,
2000-09-11, 02:43:00,VALID,916.803,VALID,0,VALID,99.0249,VALID,-0.0339617,VALID,18.3465,VALID,101,VALID,0,
2000-09-11, 02:44:00,VALID,916.784,VALID,0,VALID,99.0338,VALID,-0.0169808,VALID,18.3333,VALID,101,VALID,0,
2000-09-11, 02:45:00,VALID,916.776,VALID,0,VALID,99.0796,VALID,-0.0169808,VALID,18.3566,VALID,101,VALID,0,
2000-09-11, 02:46:00,VALID,916.761,VALID,0,VALID,99.1114,VALID,0,VALID,18.3564,VALID,101,VALID,0,
2000-09-11, 02:47:00,VALID,916.753,VALID,0,VALID,99.0961,VALID,-0.0169808,VALID,18.3465,VALID,101,VALID,0,
2000-09-11, 02:48:00,VALID,916.735,VALID,0,VALID,99.0911,VALID,0,VALID,18.3299,VALID,110,VALID,0,
2000-09-11, 02:49:00,VALID,916.705,VALID,0,VALID,99.0644,VALID,0,VALID,18.3267,VALID,181,VALID,0,
2000-09-11, 02:50:00,VALID,916.689,VALID,0,VALID,99.0453,VALID,0,VALID,18.3142,VALID,194,VALID,0,
2000-09-11, 02:51:00,VALID,916.668,VALID,0,VALID,99.03,VALID,0,VALID,18.2909,VALID,194,VALID,0,
2000-09-11, 02:52:00,VALID,916.656,VALID,0,VALID,99.0287,VALID,-0.0339617,VALID,18.2888,VALID,196,VALID,0,
2000-09-11, 02:53:00,VALID,916.641,VALID,0,VALID,99.0402,VALID,-0.0509425,VALID,18.269,VALID,203,VALID,0,
2000-09-11, 02:54:00,VALID,916.614,VALID,0,VALID,99.0313,VALID,-0.0679233,VALID,18.2563,VALID,225,VALID,0,
2000-09-11, 02:55:00,VALID,916.603,VALID,0,VALID,99.0173,VALID,-0.0169808,VALID,18.2602,VALID,230,VALID,0,
2000-09-11, 02:56:00,VALID,916.594,VALID,0,VALID,99.0326,VALID,-0.0339617,VALID,18.2337,VALID,228,VALID,0,
2000-09-11, 02:57:00,VALID,916.578,VALID,0,VALID,99.0377,VALID,-0.0339617,VALID,18.2307,VALID,210,VALID,0.109581,
2000-09-11, 02:58:00,VALID,916.561,VALID,0,VALID,99.0644,VALID,-0.0339617,VALID,18.2335,VALID,194,VALID,0.531044,
2000-09-11, 02:59:00,VALID,916.549,VALID,0,VALID,99.0694,VALID,0,VALID,18.224,VALID,178,VALID,0.692773,
2000-09-11, 03:00:00,VALID,916.543,VALID,0,VALID,99.0923,VALID,0,VALID,18.2302,VALID,172,VALID,0.756579,
2000-09-11, 03:01:00,VALID,916.521,VALID,0,VALID,99.0911,VALID,-0.0169808,VALID,18.2203,VALID,170,VALID,0.799137,
2000-09-11, 03:02:00,VALID,916.503,VALID,0,VALID,99.1076,VALID,-0.0509425,VALID,18.2367,VALID,178,VALID,0.661951,
2000-09-11, 03:03:00,VALID,916.466,VALID,0,VALID,99.072,VALID,-0.0169808,VALID,18.2362,VALID,206,VALID,0.678385,
2000-09-11, 03:04:00,VALID,916.442,VALID,0,VALID,99.0389,VALID,-0.0849042,VALID,18.227,VALID,226,VALID,0.878125,
2000-09-11, 03:05:00,VALID,916.401,VALID,0,VALID,99.0287,VALID,-0.0679233,VALID,18.2305,VALID,219,VALID,1.00763,
2000-09-11, 03:06:00,VALID,916.388,VALID,0,VALID,99.0669,VALID,-0.0169808,VALID,18.2369,VALID,212,VALID,0.794975,
2000-09-11, 03:07:00,VALID,916.34,VALID,0,VALID,99.0491,VALID,-0.0169808,VALID,18.2473,VALID,207,VALID,0.814823,
2000-09-11, 03:08:00,VALID,916.304,VALID,0,VALID,99.0097,VALID,0,VALID,18.26,VALID,199,VALID,0.776727,
2000-09-11, 03:09:00,VALID,916.294,VALID,0,VALID,98.9346,VALID,-0.0509425,VALID,18.2697,VALID,200,VALID,0.704078,
2000-09-11, 03:10:00,VALID,916.284,VALID,0,VALID,98.8978,VALID,-0.0169808,VALID,18.2817,VALID,195,VALID,0.877673,
2000-09-11, 03:11:00,VALID,916.262,VALID,0,VALID,98.8838,VALID,0,VALID,18.2946,VALID,178,VALID,0.941406,
2000-09-11, 03:12:00,VALID,916.263,VALID,0,VALID,98.8342,VALID,-0.0169808,VALID,18.2916,VALID,157,VALID,0.942274,
2000-09-11, 03:13:00,VALID,916.251,VALID,0,VALID,98.8113,VALID,0,VALID,18.2888,VALID,159,VALID,1.07306,
2000-09-11, 03:14:00,VALID,916.246,VALID,0,VALID,98.8164,VALID,0,VALID,18.2685,VALID,175,VALID,1.08884,
2000-09-11, 03:15:00,VALID,916.247,VALID,0,VALID,98.8024,VALID,0.0339617,VALID,18.2648,VALID,190,VALID,1.04605,
2000-09-11, 03:16:00,VALID,916.247,VALID,0,VALID,98.7757,VALID,0.0849042,VALID,18.242,VALID,206,VALID,0.6894,
2000-09-11, 03:17:00,VALID,916.251,VALID,0,VALID,98.7604,VALID,0.0849042,VALID,18.2192,VALID,197,VALID,1.11164,
2000-09-11, 03:18:00,VALID,916.255,VALID,0,VALID,98.7554,VALID,0.0849042,VALID,18.2093,VALID,198,VALID,0.929476,
2000-09-11, 03:19:00,VALID,916.242,VALID,0,VALID,98.7693,VALID,0.0849042,VALID,18.2164,VALID,204,VALID,0.755469,
2000-09-11, 03:20:00,VALID,916.226,VALID,0,VALID,98.7986,VALID,0.0679233,VALID,18.2229,VALID,202,VALID,0.932977,
2000-09-11, 03:21:00,VALID,916.243,VALID,0,VALID,98.8227,VALID,0.0679233,VALID,18.2224,VALID,209,VALID,1.05816,
2000-09-11, 03:22:00,VALID,916.237,VALID,0,VALID,98.8584,VALID,0.0509425,VALID,18.2291,VALID,220,VALID,0.982856,
2000-09-11, 03:23:00,VALID,916.242,VALID,0,VALID,98.8901,VALID,0.0339617,VALID,18.2388,VALID,196,VALID,0.870477,
2000-09-11, 03:24:00,VALID,916.234,VALID,0,VALID,98.913,VALID,0.0509425,VALID,18.2452,VALID,186,VALID,1.14866,
2000-09-11, 03:25:00,VALID,916.239,VALID,0,VALID,98.9385,VALID,0.0509425,VALID,18.2554,VALID,198,VALID,1.03594,
2000-09-11, 03:26:00,VALID,916.234,VALID,0,VALID,98.9652,VALID,0.0679233,VALID,18.239,VALID,211,VALID,0.999599,
2000-09-11, 03:27:00,VALID,916.241,VALID,0,VALID,99.002,VALID,0.0679233,VALID,18.2455,VALID,216,VALID,0.877467,
2000-09-11, 03:28:00,VALID,916.232,VALID,0,VALID,99.0427,VALID,0.0849042,VALID,18.2519,VALID,214,VALID,0.954153,
2000-09-11, 03:29:00,VALID,916.237,VALID,0,VALID,99.0555,VALID,0.0339617,VALID,18.2554,VALID,215,VALID,0.737695,
2000-09-11, 03:30:00,VALID,916.218,VALID,0,VALID,99.0682,VALID,-0.0509425,VALID,18.2568,VALID,203,VALID,0.741982,
2000-09-11, 03:31:00,VALID,916.219,VALID,0,VALID,99.0936,VALID,-0.0339617,VALID,18.2533,VALID,180,VALID,0.502878,
2000-09-11, 03:32:00,VALID,916.215,VALID,0,VALID,99.1203,VALID,-0.0679233,VALID,18.2505,VALID,193,VALID,0.925253,
2000-09-11, 03:33:00,VALID,916.203,VALID,0,VALID,99.1279,VALID,-0.0509425,VALID,18.2335,VALID,212,VALID,0.924479,